Toronto Pearson, Ontario

4:08 AM EDT on August 29, 2016 (GMT -0400)
Toronto-Pearson International

Weather History for CYYZ - July, 2013

Change the Weather History Date:

Saturday, July 13, 2013

  Actual Average Record
Temperature  
Mean Temperature 70 °F -  
Max Temperature 81 °F 79 °F 96 °F (2016)
Min Temperature 60 °F 57 °F 57 °F (2001)
Cooling Degree Days 6    
Growing Degree Days 20 (Base 50)    
Moisture  
Dew Point 60 °F    
Average Humidity 63    
Maximum Humidity 88    
Minimum Humidity 39    
Precipitation  
Precipitation 0.00 in 0.10 in - ()
Sea Level Pressure  
Sea Level Pressure 30.22 in    
Wind  
Wind Speed 5 mph ()    
Max Wind Speed 16 mph    
Max Gust Speed -    
Visibility 15.0 miles    
Events      
Averages and records for this station are not official NWS values.
T = Trace of Precipitation, MM = Missing Value Source: Averaged Metar Reports

Daily Weather History Graph

Daily Weather History Graph

Search for Another Location

Airport or City:

Trip Planner

Search our weather history database for the weather conditions in past years. The results will help you decide how hot, cold, wet, or windy it might be!

Date:

Astronomy

Jul. 13, 2013 Rise Set
Actual Time 5:49 AM EDT 8:58 PM EDT
Civil Twilight 5:14 AM EDT 9:33 PM EDT
Nautical Twilight 4:29 AM EDT 10:18 PM EDT
Astronomical Twilight 3:35 AM EDT 11:12 PM EDT
Moon 11:15 AM EDT (7/13) 11:26 PM EDT (7/13)
Length of Visible Light 16h 19m
Length of Day
15h 09m
Waxing Crescent, 25% of the Moon is Illuminated
Jul 13
Waxing Crescent
Jul 15
First Quarter
Jul 22
Full
Jul 29
Last Quarter
Aug 6
New

Hourly Weather History & Observations

Time (EDT) Temp. Heat Index Dew Point Humidity Pressure Visibility Wind Dir Wind Speed Gust Speed Precip Events Conditions
12:00 AM 68.0 °F - 59.0 °F 73% 30.19 in 15.0 mi SSE 3.5 mph - N/A   Scattered Clouds
1:00 AM 66.2 °F - 57.2 °F 73% 30.19 in 15.0 mi NNE 2.3 mph - N/A   Scattered Clouds
2:00 AM 67 °F - 57 °F 62% 30.19 in 15 mi NE 2.3 mph - -   Scattered Clouds
2:00 AM 68.0 °F - 57.2 °F 68% 30.19 in 15.0 mi NE 2.3 mph - N/A   Scattered Clouds
3:00 AM 64.4 °F - 57.2 °F 77% 30.20 in 15.0 mi North 6.9 mph - N/A   Scattered Clouds
4:00 AM 62.6 °F - 57.2 °F 82% 30.19 in 15.0 mi North 5.8 mph - N/A   Partly Cloudy
5:00 AM 60.8 °F - 57.2 °F 88% 30.21 in 15.0 mi NW 2.3 mph - N/A   Scattered Clouds
6:00 AM 60.8 °F - 57.2 °F 88% 30.22 in 15.0 mi North 6.9 mph - N/A   Mostly Cloudy
7:00 AM 62.6 °F - 57.2 °F 82% 30.24 in 15.0 mi North 6.9 mph - N/A   Mostly Cloudy
8:00 AM 68 °F - 59 °F 65% 30.24 in 15 mi NE 15.7 mph - -   Scattered Clouds
8:00 AM 68.0 °F - 59.0 °F 73% 30.24 in 15.0 mi NE 8.1 mph - N/A   Scattered Clouds
9:00 AM 71.6 °F - 60.8 °F 69% 30.24 in 15.0 mi ENE 5.8 mph - N/A   Partly Cloudy
10:00 AM 75.2 °F - 59.0 °F 57% 30.24 in 15.0 mi East 6.9 mph - N/A   Scattered Clouds
11:00 AM 77.0 °F - 59.0 °F 54% 30.24 in 15.0 mi East 3.5 mph - N/A   Partly Cloudy
12:00 PM 78.8 °F - 59.0 °F 51% 30.24 in 15.0 mi SE 9.2 mph - N/A   Partly Cloudy
1:00 PM 80.6 °F 81.1 °F 59.0 °F 48% 30.23 in 15.0 mi SE 5.8 mph - N/A   Scattered Clouds
2:00 PM 80 °F - 60 °F 39% 30.23 in 15 mi SSE 10.4 mph - -   Scattered Clouds
2:00 PM 78.8 °F - 59.0 °F 51% 30.23 in 15.0 mi SE 11.5 mph - N/A   Scattered Clouds
3:00 PM 80.6 °F 81.8 °F 62.6 °F 54% 30.23 in 15.0 mi ESE 9.2 mph - N/A   Partly Cloudy
4:00 PM 80.6 °F 82.3 °F 64.4 °F 58% 30.23 in 15.0 mi SE 8.1 mph - N/A   Partly Cloudy
5:00 PM 80.6 °F 82.3 °F 64.4 °F 58% 30.22 in 15.0 mi ESE 3.5 mph - N/A   Partly Cloudy
6:00 PM 80.6 °F 81.8 °F 62.6 °F 54% 30.22 in 15.0 mi SE 8.1 mph - N/A   Partly Cloudy
7:00 PM 78.8 °F - 60.8 °F 54% 30.22 in 15.0 mi SE 9.2 mph - N/A   Partly Cloudy
8:00 PM 77 °F - 62 °F 49% 30.23 in 15 mi SE 6.9 mph - -   Scattered Clouds
8:00 PM 77.0 °F - 60.8 °F 57% 30.23 in 15.0 mi SE 6.9 mph - N/A   Partly Cloudy
9:00 PM 75.2 °F - 60.8 °F 61% 30.23 in 15.0 mi East 4.6 mph - N/A   Partly Cloudy
10:00 PM 75.2 °F - 60.8 °F 61% 30.25 in 15.0 mi NE 4.6 mph - N/A   Partly Cloudy
11:00 PM 73.4 °F - 60.8 °F 65% 30.25 in 15.0 mi East 4.6 mph - N/A   Clear